Temperature
20 19 19 19 19 18 18 18 18 18 18 17 18 17 17 17 17 17 17 17 17 17 16 16 16 16 16 16 16 16 15 15 15 16 16 16 16 16 16 16 16 16 16
20 19 19 19 18 18 18 18 18 18 17 17 17 17 17 17 17 17 17 16 16 16 16 16 16 16 16 16 15 15 15 15 15 15 15 15 15 15 15 15 16 16 15
19 19 19 18 18 18 18 18 18 17 17 17 17 17 17 17 16 16 16 16 16 16 16 16 16 15 15 15 15 15 15 15 15 15 15 15 15 15 15 15 15 15 15
19 19 18 18 18 18 18 17 17 17 17 17 16 16 16 16 16 16 16 16 15 15 15 15 15 15 15 15 15 15 15 14 14 14 14 14 14 14 14 15 15 15 15
19 19 18 18 18 18 17 17 17 17 16 16 16 16 16 16 16 16 16 15 15 15 15 15 15 15 15 14 14 14 14 14 14 14 14 14 14 14 14 14 14 14 14
19 18 18 18 18 17 17 17 16 16 16 16 16 16 16 16 16 15 15 15 15 15 15 15 15 14 14 14 14 14 14 14 14 14 14 14 14 14 14 14 14 13 14
19 18 18 18 17 17 17 16 16 16 16 16 16 15 15 15 15 15 15 15 15 15 15 15 14 14 14 14 14 14 14 14 14 14 13 14 14 13 13 13 13 13 13
18 18 18 17 17 17 16 16 16 16 16 15 15 15 15 15 15 15 15 15 15 14 14 14 14 14 14 14 14 14 14 14 13 13 13 13 13 13 13 13 13 13 13
18 17 17 17 16 16 16 16 16 15 15 15 15 15 15 15 15 15 14 14 14 14 14 14 14 14 14 14 13 13 13 14 13 13 13 13 13 13 13 13 13 13 13
17 17 17 16 16 16 16 15 15 15 15 15 15 15 15 15 15 14 14 14 14 14 14 14 14 14 14 13 13 13 13 13 13 13 13 13 13 13 13 13 13 12 12
17 17 16 16 16 16 15 15 15 15 15 15 15 15 14 14 14 14 14 14 14 14 14 14 14 14 14 13 13 13 13 13 13 13 13 13 13 13 13 13 12 12 12
16 16 16 16 15 15 15 15 15 14 14 14 14 14 14 14 14 14 13 13 13 13 13 13 13 13 13 13 13 13 13 13 13 13 13 13 12 12 12 12 12 12 12
16 16 15 15 15 15 14 14 14 14 14 14 14 14 14 14 14 14 13 13 13 13 13 13 13 13 13 13 13 13 12 12 12 12 12 12 12 12 12 12 12 12 12
15 15 15 15 15 14 14 14 14 13 13 13 13 13 13 13 14 13 13 13 13 13 13 13 13 13 13 13 13 13 12 12 12 12 12 12 12 12 12 12 11 11 11
15 14 14 14 14 14 14 13 13 13 13 13 13 13 13 13 13 13 13 13 13 13 13 13 13 13 12 12 12 12 12 12 12 12 12 12 11 11 11 11 11 11 11
14 14 14 14 13 13 13 13 13 13 13 13 13 13 13 13 13 13 13 13 13 12 12 12 12 12 12 12 12 12 12 12 12 12 11 11 11 11 11 11 11 11 10
13 13 13 13 13 13 13 13 13 13 13 13 13 13 13 13 12 12 13 12 12 12 12 11 11 11 11 11 11 11 11 11 11 11 11 11 11 11 11 11 10 10 10
13 13 13 13 13 12 12 12 12 12 12 12 13 12 12 12 12 12 12 12 12 11 11 11 11 11 11 11 11 11 11 11 11 11 11 11 11 11 10 10 10 10 10
12 12 12 12 12 12 12 12 12 12 12 12 12 12 12 12 12 12 12 12 11 11 11 11 11 11 10 10 10 10 10 10 10 10 10 10 10 10 10 10 10 10 9
12 12 12 12 12 12 12 12 12 12 12 12 12 12 12 12 12 12 11 11 11 11 11 10 10 10 10 10 10 10 10 10 10 10 10 10 10 10 10 9 9 9 9
12 12 12 12 12 12 11 11 11 11 11 11 11 11 11 11 11 11 11 11 11 11 10 10 10 10 10 10 9 9 9 9 9 9 9 9 9 9 9 9 9 9 9
12 12 12 11 11 11 11 11 11 11 11 11 11 11 11 11 11 10 10 10 10 10 10 10 10 10 9 9 9 9 9 9 9 9 9 9 9 9 9 9 9 8 8
11 11 11 11 11 11 11 11 11 11 10 10 10 10 10 10 10 10 10 10 10 10 10 10 10 9 9 9 9 9 9 9 9 9 9 9 9 9 8 8 8 8 8
11 11 11 11 11 11 11 11 10 10 10 10 10 10 10 10 10 10 10 10 10 9 9 9 9 9 9 9 9 9 9 9 9 9 9 8 8 8 8 8 8 8 8
11 11 11 11 11 11 10 10 10 10 10 10 10 10 10 10 10 9 9 9 9 9 9 9 9 9 9 9 9 9 9 9 9 8 8 8 8 8 8 8 8 8 7
10 10 10 10 10 10 10 10 10 10 10 10 10 10 10 9 9 9 9 9 9 9 9 9 9 9 9 9 9 9 9 8 8 8 8 8 8 8 8 8 8 8 7
Wind_Speed
7 6 5 5 4 4 3 3 3 2 1 1 1 1 1 1 1 1 1 1 1 2 2 1 2 1 1 1 1 1 1 2 3 4 3 2 2 2 3 4 5 5 6
6 5 5 4 4 4 4 3 3 2 2 2 1 1 2 1 1 1 2 1 1 2 2 2 3 2 1 1 1 1 2 2 3 4 3 2 3 3 2 3 3 3 4
6 6 4 4 4 4 4 3 3 3 2 2 2 2 2 1 1 2 2 2 2 2 2 3 4 3 3 2 2 2 3 3 2 3 4 3 2 2 2 3 3 2 3
6 5 4 4 4 4 4 3 3 3 3 3 2 2 2 2 2 2 2 2 2 2 3 3 4 4 5 4 3 3 3 2 2 2 3 3 3 2 1 2 3 2 3
6 6 5 4 3 3 3 3 3 3 3 3 2 2 2 2 2 2 2 2 2 3 3 3 4 5 5 4 4 3 3 3 3 3 3 3 3 2 2 2 3 3 3
6 6 5 4 4 3 3 3 3 3 3 2 3 2 2 3 4 4 4 3 3 4 4 3 4 4 5 5 5 5 5 4 4 4 4 4 5 4 3 3 2 2 3
6 5 5 5 4 4 4 3 3 3 3 3 3 3 3 4 5 5 5 3 3 4 4 4 4 4 4 3 5 6 6 7 6 5 5 6 5 5 4 4 3 3 4
4 4 4 4 4 4 3 3 3 3 3 4 4 4 4 5 5 5 4 2 2 3 3 4 4 4 4 3 4 4 5 6 6 5 5 6 6 6 6 6 5 4 3
4 4 4 4 4 3 4 4 3 3 4 4 4 4 4 5 5 5 4 2 2 4 4 4 4 5 6 5 3 5 6 6 6 6 7 7 8 7 5 2 2 2 3
4 4 4 3 4 4 4 4 3 3 4 4 4 4 4 4 5 4 4 2 3 4 4 5 6 6 6 5 4 5 6 7 5 6 6 7 6 6 5 4 5 4 3
3 3 3 3 4 4 3 3 3 2 3 3 3 4 4 5 5 5 5 3 4 4 4 4 5 7 7 7 6 6 8 7 4 4 4 5 4 3 3 3 4 5 4
2 2 2 2 2 2 2 2 2 2 3 3 3 4 4 4 4 5 5 6 5 5 5 4 5 7 7 7 6 7 8 5 3 3 3 4 4 4 4 4 3 4 5
2 1 1 1 2 2 2 2 2 2 3 4 3 4 4 3 3 5 6 7 7 5 5 6 7 7 6 5 6 6 5 3 2 3 4 5 4 4 3 2 2 1 1
2 2 2 2 2 2 2 2 2 3 3 4 4 4 4 3 3 2 3 4 5 4 4 4 5 5 3 3 3 3 3 3 4 4 4 4 2 2 2 1 1 1 1
2 3 3 3 3 2 2 2 3 4 5 5 5 5 4 4 6 6 4 3 3 4 2 1 1 2 2 2 2 3 2 2 3 3 3 2 2 2 2 2 1 1 1
2 3 3 2 2 2 2 2 3 4 4 5 7 6 5 7 6 5 5 6 5 3 2 1 2 2 3 3 3 3 3 3 3 3 2 2 2 2 2 2 1 1 2
3 3 2 2 3 2 2 2 3 4 4 4 5 6 7 7 6 5 4 3 2 4 2 2 2 3 3 3 3 2 3 3 2 2 2 2 2 2 2 2 1 1 1
3 3 3 3 3 2 2 3 2 2 3 5 5 4 4 5 4 4 2 2 1 1 2 2 2 2 2 2 2 2 2 2 1 1 2 2 2 2 2 2 2 2 2
3 3 3 3 3 2 2 2 2 3 3 3 3 3 3 2 1 1 3 2 2 2 2 2 2 1 1 2 2 2 1 1 1 1 1 1 1 1 1 2 2 2 1
3 4 3 2 2 2 2 2 2 3 2 3 3 3 1 1 1 0 1 2 2 2 2 2 2 2 1 1 1 1 1 1 1 1 2 2 2 1 1 1 1 1 2
2 3 3 2 1 2 2 2 2 2 2 3 3 3 2 2 2 2 2 2 3 3 3 2 2 2 2 1 1 2 2 2 2 1 1 1 1 1 1 1 1 1 1
1 1 1 1 1 1 2 2 2 2 2 3 2 1 2 1 2 2 2 2 2 3 3 3 3 2 2 3 3 2 2 2 2 2 2 2 1 1 1 1 1 1 1
1 1 1 1 2 2 2 2 2 2 2 2 2 1 1 1 2 2 2 2 2 2 2 2 2 2 2 2 3 3 3 4 3 3 2 2 2 1 1 1 1 0 1
1 1 1 1 1 1 1 2 2 2 2 3 2 2 2 2 2 2 2 2 2 1 1 1 1 2 1 1 2 2 3 3 3 3 3 3 2 2 2 1 1 1 1
1 1 1 1 1 1 1 1 2 2 2 2 2 2 2 2 2 2 2 1 2 1 1 2 2 2 2 2 2 2 2 2 2 2 2 2 2 1 1 1 1 1 0
1 1 1 1 1 1 1 1 2 2 2 2 2 2 2 2 2 2 2 2 2 2 2 2 2 2 2 2 2 2 1 1 2 1 1 1 1 1 1 1 1 1 1
Wind_Direction
181 181 179 184 188 187 198 213 217 229 230 224 214 215 232 244 232 199 254 259 242 270 265 239 260 250 259 276 250 241 233 202 244 275 266 277 264 269 282 260 259 252 252
176 171 181 186 187 192 207 219 214 216 225 225 202 208 231 238 232 221 251 260 249 261 261 249 262 260 253 253 244 252 245 229 220 265 283 276 261 258 262 268 281 274 253
168 167 176 190 195 202 209 210 203 206 213 209 198 205 226 238 241 243 242 242 242 249 248 243 252 252 255 250 241 242 245 256 230 240 272 269 266 283 292 290 294 287 281
164 166 177 192 197 204 204 198 203 204 205 217 209 203 217 237 254 253 244 244 256 262 260 256 257 249 245 243 243 241 236 245 250 252 270 277 270 273 257 274 297 291 289
163 173 191 194 193 196 199 199 202 200 209 205 192 211 236 242 253 250 242 242 248 257 259 258 249 257 263 252 243 231 223 228 241 249 263 275 272 281 266 253 269 279 281
169 185 190 186 191 201 203 201 198 197 194 197 205 210 231 250 258 249 231 235 239 240 248 257 261 268 270 268 266 251 234 230 235 238 252 259 261 255 255 254 254 282 284
174 186 187 188 198 206 208 202 206 207 202 205 223 219 231 248 249 253 246 230 233 235 238 246 262 275 266 257 273 281 275 267 251 236 240 249 250 243 236 247 240 235 249
177 188 191 194 206 207 200 210 221 215 213 220 226 232 238 251 249 255 255 238 242 252 250 239 240 264 261 248 256 276 278 276 270 256 243 249 250 241 227 230 234 247 267
178 184 196 198 205 209 211 221 227 225 229 230 228 228 237 254 252 246 233 232 241 257 261 255 244 248 261 252 245 264 279 282 280 275 275 270 272 267 247 226 228 225 268
192 194 196 190 194 203 214 225 233 228 235 235 240 238 237 244 250 237 218 218 245 257 265 264 257 252 256 248 238 245 262 272 281 293 293 291 283 278 258 218 210 219 245
197 190 195 199 201 205 206 215 231 242 255 250 250 254 245 240 244 236 221 216 236 250 257 263 265 263 259 255 242 239 250 259 267 273 282 289 288 277 264 242 219 209 219
167 174 196 213 223 216 200 229 238 230 250 260 259 267 261 252 238 234 229 232 234 236 248 253 262 266 265 261 251 255 262 265 262 272 275 275 272 267 265 256 246 228 219
157 190 210 208 244 220 205 226 251 248 246 255 251 254 263 262 247 238 234 240 243 241 253 259 269 272 267 265 265 266 264 246 244 255 261 262 255 253 260 270 282 279 282
183 222 222 206 241 251 239 227 231 236 240 246 245 247 255 262 256 252 247 251 257 260 272 284 285 275 268 270 286 277 248 231 228 244 254 259 267 270 266 260 270 284 305
228 229 230 222 224 240 247 245 242 244 234 234 239 231 228 246 251 232 223 237 235 240 249 298 331 323 307 298 292 278 261 253 244 246 249 263 264 261 263 264 262 270 269
241 249 241 230 228 223 231 302 308 275 269 249 241 235 236 232 236 237 246 249 238 212 164 213 262 264 267 276 276 279 267 255 252 244 238 239 249 250 260 269 250 243 262
222 242 246 238 236 236 231 239 294 320 318 292 266 248 236 237 234 234 241 250 226 166 173 229 244 254 264 274 271 263 267 265 255 238 233 243 246 243 239 253 260 264 273
235 240 238 235 235 235 236 234 234 259 297 308 300 272 251 247 246 242 220 129 99 161 214 231 243 256 267 279 281 280 291 309 305 284 265 264 252 239 238 236 231 231 250
235 236 226 227 229 228 225 227 245 256 264 284 299 301 284 268 256 219 145 158 194 221 230 233 245 255 276 291 294 286 279 284 296 287 285 281 277 261 262 248 235 241 251
236 243 236 221 225 234 225 222 243 257 257 268 275 271 288 74 87 174 173 188 196 215 225 229 235 239 252 271 287 294 299 294 295 291 286 278 262 239 243 256 250 248 251
250 249 244 238 226 223 229 233 240 251 253 259 259 242 178 178 211 216 207 209 211 215 219 224 227 234 236 247 251 256 262 270 268 270 279 280 276 270 263 239 257 247 251
263 249 224 220 228 236 241 242 236 238 253 265 270 260 191 192 216 220 227 230 226 222 213 205 216 225 225 225 223 222 230 249 257 249 254 262 264 266 260 241 250 274 263
278 235 241 252 246 252 261 254 237 233 236 247 251 237 218 231 231 226 230 231 228 233 232 206 213 238 242 232 214 201 213 234 238 226 224 238 245 239 228 223 225 242 279
283 247 236 250 247 240 252 256 248 241 235 236 232 224 219 222 229 232 233 228 222 238 244 223 215 229 243 248 240 238 241 242 237 219 210 215 226 230 221 223 240 227 227
306 282 278 235 225 240 261 258 248 245 246 243 235 224 222 223 229 243 243 229 209 216 232 219 223 229 226 229 240 263 277 277 271 251 224 202 206 219 214 218 222 181 165
342 319 279 233 244 252 255 260 262 245 232 242 246 240 234 232 231 239 234 220 227 236 232 217 220 215 215 221 236 259 270 289 301 313 246 179 167 176 163 173 151 131 117
Height
1516 1518 1519 1520 1521 1521 1522 1522 1522 1522 1521 1521 1521 1520 1519 1518 1517 1516 1515 1515 1514 1513 1513 1512 1512 1511 1511 1510 1511 1511 1510 1510 1508 1508 1507 1507 1506 1505 1505 1505 1504 1503 1503
1514 1515 1517 1518 1518 1518 1519 1519 1519 1519 1519 1519 1518 1517 1517 1516 1515 1513 1513 1512 1511 1511 1510 1510 1509 1509 1508 1508 1507 1507 1507 1506 1506 1504 1504 1503 1502 1502 1501 1501 1500 1499 1499
1511 1513 1514 1515 1516 1516 1516 1516 1516 1516 1516 1516 1515 1515 1514 1513 1512 1511 1510 1510 1509 1508 1508 1507 1507 1506 1505 1504 1504 1504 1504 1503 1503 1501 1500 1500 1499 1499 1498 1497 1496 1496 1495
1509 1510 1511 1512 1513 1513 1514 1513 1514 1514 1513 1513 1512 1512 1511 1511 1509 1508 1508 1507 1506 1506 1505 1504 1503 1503 1502 1502 1501 1500 1500 1500 1499 1498 1497 1496 1496 1495 1494 1493 1492 1491 1491
1506 1507 1509 1510 1510 1510 1511 1510 1511 1511 1510 1509 1509 1509 1508 1508 1507 1506 1505 1504 1504 1503 1502 1501 1501 1501 1500 1499 1498 1497 1497 1496 1495 1494 1493 1492 1492 1491 1490 1489 1488 1487 1486
1504 1505 1506 1507 1507 1507 1507 1507 1507 1507 1506 1506 1506 1506 1505 1504 1503 1503 1502 1501 1501 1500 1499 1498 1498 1497 1496 1496 1495 1494 1494 1493 1492 1491 1490 1489 1488 1487 1487 1486 1485 1484 1482
1501 1503 1503 1504 1504 1504 1504 1504 1503 1503 1503 1503 1502 1502 1501 1501 1500 1500 1499 1498 1498 1496 1496 1495 1494 1493 1492 1492 1491 1491 1490 1489 1489 1488 1486 1485 1484 1484 1483 1482 1481 1480 1479
1499 1500 1501 1501 1501 1501 1501 1500 1500 1500 1500 1499 1499 1498 1498 1497 1497 1496 1496 1495 1494 1493 1492 1491 1490 1489 1489 1488 1487 1486 1485 1485 1484 1484 1483 1481 1481 1480 1480 1479 1478 1477 1476
1497 1497 1498 1498 1498 1498 1498 1497 1497 1497 1496 1495 1495 1494 1493 1493 1493 1492 1492 1491 1490 1489 1488 1488 1487 1486 1485 1484 1483 1482 1481 1481 1480 1480 1479 1478 1477 1476 1476 1475 1474 1472 1471
1494 1494 1495 1495 1495 1495 1494 1494 1494 1493 1493 1492 1491 1491 1490 1489 1489 1489 1488 1487 1486 1485 1484 1484 1483 1482 1481 1480 1479 1478 1476 1476 1476 1475 1474 1473 1472 1472 1471 1470 1469 1468 1467
1492 1492 1492 1492 1491 1491 1491 1491 1490 1490 1489 1488 1487 1486 1486 1485 1485 1485 1484 1483 1482 1481 1480 1479 1478 1478 1477 1476 1475 1474 1473 1472 1472 1471 1469 1469 1468 1467 1466 1465 1464 1464 1463
1489 1488 1488 1488 1488 1487 1487 1487 1486 1486 1485 1485 1484 1483 1482 1481 1481 1480 1480 1479 1478 1477 1476 1475 1474 1474 1473 1472 1471 1470 1469 1469 1468 1466 1465 1464 1463 1462 1462 1461 1460 1460 1459
1485 1485 1484 1484 1484 1483 1483 1482 1482 1482 1481 1481 1480 1479 1478 1477 1477 1476 1476 1475 1474 1473 1472 1471 1470 1469 1468 1467 1467 1466 1465 1464 1463 1462 1461 1460 1460 1459 1458 1457 1456 1456 1455
1481 1481 1481 1480 1480 1480 1479 1479 1478 1478 1477 1477 1476 1475 1474 1473 1473 1472 1471 1470 1470 1469 1468 1467 1466 1465 1464 1463 1463 1462 1461 1460 1459 1459 1458 1457 1456 1455 1454 1453 1452 1452 1451
1477 1476 1476 1476 1476 1476 1476 1475 1475 1474 1474 1474 1473 1472 1471 1469 1469 1468 1467 1466 1465 1464 1463 1463 1462 1461 1460 1459 1459 1458 1457 1457 1456 1455 1454 1453 1452 1452 1451 1450 1449 1449 1448
1473 1472 1472 1472 1472 1472 1472 1471 1471 1471 1470 1469 1468 1468 1467 1466 1465 1464 1463 1462 1461 1461 1459 1458 1457 1457 1456 1455 1455 1454 1454 1453 1452 1451 1451 1450 1449 1448 1447 1446 1446 1445 1445
1468 1468 1468 1468 1468 1468 1468 1468 1467 1466 1466 1465 1464 1463 1462 1462 1461 1460 1459 1458 1457 1456 1455 1455 1454 1453 1453 1452 1452 1451 1450 1450 1449 1448 1447 1447 1446 1445 1444 1443 1442 1442 1441
1464 1464 1464 1464 1464 1464 1464 1464 1464 1463 1462 1460 1460 1459 1458 1458 1457 1456 1455 1454 1453 1453 1452 1452 1451 1451 1450 1450 1449 1448 1447 1447 1446 1445 1444 1444 1443 1442 1441 1440 1440 1439 1439
1461 1460 1461 1461 1461 1461 1461 1461 1460 1460 1458 1457 1456 1456 1455 1454 1453 1452 1451 1451 1450 1449 1449 1449 1448 1448 1448 1447 1447 1446 1445 1444 1443 1443 1442 1441 1440 1439 1437 1437 1436 1436 1436
1457 1458 1458 1458 1458 1458 1458 1458 1457 1456 1455 1454 1453 1452 1452 1451 1449 1449 1448 1448 1447 1447 1446 1446 1446 1445 1445 1444 1444 1443 1443 1442 1441 1440 1439 1438 1437 1436 1435 1434 1434 1434 1433
1455 1455 1455 1455 1455 1455 1455 1454 1454 1453 1452 1451 1450 1449 1449 1448 1447 1446 1445 1445 1444 1444 1443 1443 1443 1443 1442 1442 1442 1441 1440 1439 1438 1437 1436 1435 1435 1434 1433 1432 1432 1431 1431
1453 1453 1453 1452 1452 1452 1451 1451 1450 1450 1449 1448 1447 1447 1446 1445 1444 1443 1442 1442 1442 1441 1441 1441 1441 1441 1440 1440 1439 1439 1438 1437 1436 1434 1433 1433 1432 1431 1431 1430 1429 1429 1429
1451 1451 1451 1450 1450 1449 1449 1448 1447 1447 1446 1445 1445 1444 1444 1443 1442 1442 1441 1441 1440 1440 1440 1439 1439 1438 1438 1437 1437 1436 1435 1434 1433 1431 1430 1430 1429 1428 1428 1428 1427 1427 1427
1449 1449 1448 1448 1447 1447 1446 1445 1444 1444 1443 1443 1442 1442 1441 1441 1440 1440 1439 1439 1438 1438 1438 1437 1437 1436 1435 1435 1434 1433 1433 1431 1430 1429 1428 1427 1426 1426 1425 1425 1425 1425 1425
1447 1446 1446 1445 1445 1444 1444 1443 1442 1441 1441 1440 1440 1439 1439 1438 1438 1437 1437 1437 1436 1435 1435 1434 1434 1434 1433 1432 1432 1431 1430 1429 1428 1427 1426 1425 1424 1423 1423 1423 1423 1423 1423
1445 1444 1444 1443 1442 1442 1442 1441 1440 1439 1438 1438 1437 1437 1436 1435 1435 1434 1434 1433 1433 1432 1432 1432 1432 1431 1430 1430 1429 1429 1428 1427 1426 1425 1424 1423 1422 1422 1422 1422 1422 1422 1422